FW6330 Weather Reports


Display with metric or nautical units.
time (UTC)temp
F
wind
direction
speed
MPH
gust
MPH
rain 1hr
in
rain 24hr
in
rain mn
in
humidity
%
barometer
mb
20260903111528 35 149 0.0 0.0 0.00 0.00 0.00 91 1018.8
20260903110027 35 303 0.0 0.0 0.00 0.00 0.00 91 1019.0
20260903104545 35 323 0.0 0.0 0.00 0.00 0.00 91 1019.0
20260903103026 35 56 0.0 0.0 0.00 0.00 0.00 91 1018.9
20260903101525 35 271 0.0 0.0 0.00 0.00 0.00 91 1019.0
20260903100036 35 99 0.0 0.0 0.00 0.00 0.00 91 1019.0
20260903094525 35 242 0.0 0.0 0.00 0.00 0.00 91 1019.1
20260903093027 35 214 0.0 0.0 0.00 0.00 0.00 90 1019.2
20260903091520 36 4 0.0 0.0 0.00 0.00 0.00 90 1019.4
20260903090019 36 172 0.0 0.0 0.00 0.00 0.00 90 1019.5
20260903084519 36 51 0.0 0.0 0.00 0.00 0.00 89 1019.4
20260903083017 36 106 0.0 0.0 0.00 0.00 0.00 89 1019.4
20260903081521 37 283 0.0 0.0 0.00 0.00 0.00 89 1019.5
20260903080015 37 148 0.0 0.0 0.00 0.00 0.00 89 1019.5
20260903074515 37 215 0.0 0.0 0.00 0.00 0.00 89 1019.5
20260903073022 36 302 0.0 0.0 0.00 0.00 0.00 89 1019.5
20260903071515 36 195 0.0 0.0 0.00 0.00 0.00 89 1019.5
20260903070011 37 82 0.0 0.0 0.00 0.00 0.00 89 1019.7
20260903064511 37 210 0.0 1.0 0.00 0.00 0.00 89 1019.6
20260903063009 37 79 0.0 0.0 0.00 0.00 0.00 87 1019.6
20260903061509 38 214 0.0 1.0 0.00 0.00 0.00 88 1019.7
20260903060009 38 91 0.0 0.0 0.00 0.00 0.00 87 1019.8
20260903054508 38 73 0.0 0.0 0.00 0.00 0.00 86 1019.8
20260903053008 38 263 0.0 1.0 0.00 0.00 0.00 86 1020.0
20260903051508 39 193 0.0 0.0 0.00 0.00 0.00 85 1019.9
20260903050007 39 208 0.0 0.0 0.00 0.00 0.00 84 1019.9
20260903044509 40 98 0.0 0.0 0.00 0.00 0.00 84 1019.9
20260903043003 40 126 0.0 0.0 0.00 0.00 0.00 83 1019.8
20260903041509 40 232 0.0 0.0 0.00 0.00 0.00 82 1019.7
20260903040002 41 266 0.0 0.0 0.00 0.00 0.00 81 1019.2
20260903034502 42 336 0.0 0.0 0.00 0.00 0.00 80 1019.2
20260903033001 42 298 0.0 0.0 0.00 0.00 0.00 78 1019.1
20260903031603 43 72 0.0 0.0 0.00 0.00 0.00 77 1019.0
20260903024559 45 230 0.0 0.0 0.00 0.00 0.00 73 1018.8
20260903023059 46 179 0.0 1.0 0.00 0.00 0.00 72 1018.8
20260903021558 47 37 0.0 4.0 0.00 0.00 0.00 70 1018.9
20260903020057 48 166 0.0 1.0 0.00 0.00 0.00 69 1019.0
20260903014624 49 209 0.0 4.0 0.00 0.00 0.00 67 1018.9
20260903013101 50 99 1.0 7.0 0.00 0.00 0.00 65 1018.8
20260903011608 50 296 0.0 3.0 0.00 0.00 0.00 64 1018.6
20260903010056 51 66 0.0 5.0 0.00 0.00 0.00 62 1018.7
20260903004555 52 304 0.0 2.0 0.00 0.00 0.00 60 1018.5
20260903003057 53 313 0.0 6.0 0.00 0.00 0.00 58 1018.6
20260903001555 53 200 0.0 6.0 0.00 0.00 0.00 57 1018.5
20260903000059 54 208 1.0 6.0 0.00 0.00 0.00 55 1018.8
20260902234559 54 80 0.0 5.0 0.00 0.00 0.00 56 1018.7
20260902233056 55 41 3.0 5.0 0.00 0.00 0.00 54 1018.7
20260902231554 55 248 0.0 6.0 0.00 0.00 0.00 54 1018.7
20260902230103 55 227 0.0 5.0 0.00 0.00 0.00 54 1018.6
20260902224603 55 136 1.0 6.0 0.00 0.00 0.00 53 1018.8
20260902223059 56 134 0.0 4.0 0.00 0.00 0.00 55 1018.9
20260902221549 56 58 0.0 2.0 0.00 0.00 0.00 57 1019.0
20260902220056 55 274 1.0 6.0 0.00 0.00 0.00 55 1018.9
20260902214603 55 177 1.0 5.0 0.00 0.00 0.00 56 1019.0
20260902213044 55 191 0.0 4.0 0.00 0.00 0.00 57 1019.0
20260902211546 55 170 1.0 4.0 0.00 0.00 0.00 56 1018.9
20260902210043 55 320 0.0 8.0 0.00 0.00 0.00 56 1019.0
20260902204542 54 44 1.0 3.0 0.00 0.00 0.00 59 1019.0
20260902203042 54 314 1.0 4.0 0.00 0.00 0.00 60 1019.1
20260902201546 53 205 0.0 7.0 0.00 0.00 0.00 62 1019.2
20260902200040 54 147 0.0 3.0 0.00 0.00 0.00 60 1019.1
20260902194538 53 91 1.0 4.0 0.00 0.00 0.00 62 1019.1
20260902193038 54 150 2.0 8.0 0.00 0.00 0.00 58 1019.0
20260902191543 53 238 0.0 6.0 0.00 0.00 0.00 58 1018.9
20260902190033 53 158 0.0 4.0 0.00 0.00 0.00 58 1018.7
20260902184539 52 217 1.0 6.0 0.00 0.00 0.00 58 1018.8
20260902183030 52 60 0.0 5.0 0.00 0.00 0.00 58 1018.9
20260902181526 51 141 1.0 7.0 0.00 0.00 0.00 60 1018.7
20260902180028 50 277 0.0 5.0 0.00 0.00 0.00 62 1018.6
20260902174522 50 117 0.0 3.0 0.00 0.00 0.00 62 1018.4
20260902173136 50 114 0.0 6.0 0.00 0.00 0.00 62 1018.2
20260902171524 50 225 0.0 2.0 0.00 0.00 0.00 61 1018.0
20260902170016 51 25 0.0 3.0 0.00 0.00 0.00 64 1017.9
20260902164514 50 1 1.0 7.0 0.00 0.00 0.00 62 1017.6
20260902163010 0 0.0 0.0 0.00 0.00 0.00 1017.4
20260902161509 0 0.0 0.0 0.00 0.00 0.00 1017.3
20260902160004 0 0.0 0.0 0.00 0.00 0.00 1017.3
20260902154557 0 0.0 0.0 0.00 0.00 0.00 1017.4
20260902153053 0 0.0 0.0 0.00 0.00 0.00 1017.5
20260902151549 0 0.0 0.0 0.00 0.00 0.00 1017.6
20260902150045 0 0.0 0.0 0.00 0.00 0.00 1017.6
20260902144540 0 0.0 0.0 0.00 0.00 0.00 1017.6
20260902143038 0 0.0 0.0 0.00 0.00 0.00 1017.3
20260902141531 0 0.0 0.0 0.00 0.00 0.00 1017.2
20260902140028 35 172 0.0 0.0 0.00 0.00 0.00 92 1017.3
20260902134526 34 334 0.0 0.0 0.00 0.00 0.00 92 1017.0
20260902133032 34 357 0.0 0.0 0.00 0.00 0.00 91 1017.1
20260902131524 34 307 0.0 0.0 0.00 0.00 0.00 91 1017.0
20260902130022 34 72 0.0 0.0 0.00 0.00 0.00 91 1016.7
20260902124525 34 160 0.0 0.0 0.00 0.00 0.00 90 1016.7
20260902123022 35 169 0.0 0.0 0.00 0.00 0.00 90 1016.5
20260902121521 35 217 0.0 0.0 0.00 0.00 0.00 90 1016.6
20260902120023 34 72 0.0 0.0 0.00 0.00 0.00 90 1016.7
20260902114533 34 59 0.0 0.0 0.00 0.00 0.00 90 1016.6
20260902113017 34 45 0.0 0.0 0.00 0.00 0.00 90 1016.7